N5ZPR Weather Reports


Display with metric or nautical units.
time (UTC)temp
F
wind
direction
speed
MPH
gust
MPH
rain 1hr
in
rain 24hr
in
rain mn
in
humidity
%
barometer
mb
20260502164004 71 5 6.0 10.0 0.00 0.00 0.00 48 1020.4
20260502163004 70 334 2.0 9.0 0.00 0.00 0.00 50 1020.3
20260502162004 69 339 2.0 8.0 0.00 0.00 0.00 56 1020.3
20260502161004 69 296 2.0 7.0 0.00 0.00 0.00 57 1020.3
20260502151004 65 349 1.0 7.0 0.00 0.00 0.00 66 1020.2
20260502122003 49 223 0.0 0.0 0.00 0.00 0.00 93 1018.7
20260502121003 49 223 0.0 0.0 0.00 0.00 0.00 93 1017.7
20260502114003 48 223 0.0 0.0 0.00 0.00 0.00 93 1017.7
20260502113003 48 223 0.0 0.0 0.00 0.00 0.00 93 1017.7
20260502112004 48 223 0.0 0.0 0.00 0.00 0.00 93 1017.5
20260502111003 48 223 0.0 0.0 0.00 0.00 0.00 93 1017.5
20260502105004 48 223 0.0 0.0 0.00 0.00 0.00 92 1017.4
20260502104004 48 223 0.0 0.0 0.00 0.00 0.00 92 1017.1
20260502103003 49 223 0.0 0.0 0.00 0.00 0.00 92 1017.1
20260502101003 49 223 0.0 0.0 0.00 0.00 0.00 92 1017.1
20260502091004 50 223 0.0 2.0 0.00 0.00 0.00 92 1017.1
20260502071003 51 223 0.0 1.0 0.00 0.00 0.00 89 1017.1
20260502070004 51 223 0.0 0.0 0.00 0.00 0.00 88 1017.1
20260502065003 51 223 0.0 0.0 0.00 0.00 0.00 88 1017.1
20260502064003 52 223 0.0 1.0 0.00 0.00 0.00 87 1017.1
20260502063004 52 223 0.0 2.0 0.00 0.00 0.00 87 1017.1
20260502062003 52 224 1.0 5.0 0.00 0.00 0.00 88 1017.3
20260502061004 52 130 2.0 3.0 0.00 0.00 0.00 88 1017.3
20260502060005 52 117 0.0 0.0 0.00 0.00 0.00 88 1017.3
20260502055004 52 117 0.0 1.0 0.00 0.00 0.00 87 1017.4
20260502054004 52 117 0.0 2.0 0.00 0.00 0.00 87 1017.1
20260502052004 53 116 0.0 0.0 0.00 0.00 0.00 84 1017.1
20260502051003 53 116 0.0 0.0 0.00 0.00 0.00 83 1017.1
20260502050003 54 116 0.0 0.0 0.00 0.00 0.00 83 1017.1
20260502045003 54 116 0.0 0.0 0.00 0.00 0.00 82 1017.0
20260502043003 55 116 0.0 0.0 0.00 0.00 0.00 80 1017.0
20260502042004 55 116 0.0 0.0 0.00 0.00 0.00 79 1017.0
20260502041003 56 116 0.0 0.0 0.00 0.00 0.00 78 1017.0
20260502040003 56 116 0.0 0.0 0.00 0.00 0.00 77 1017.0
20260502035003 56 116 0.0 0.0 0.00 0.00 0.00 77 1016.8
20260502034003 56 116 0.0 1.0 0.00 0.00 0.00 78 1016.7
20260502033003 56 116 0.0 0.0 0.00 0.00 0.00 78 1016.7
20260502032003 56 117 0.0 0.0 0.00 0.00 0.00 77 1016.7
20260502031004 57 116 0.0 0.0 0.00 0.00 0.00 76 1016.7
20260502030003 57 116 0.0 0.0 0.00 0.00 0.00 75 1016.4
20260502024004 58 116 0.0 0.0 0.00 0.00 0.00 72 1015.3
20260502023003 59 116 0.0 0.0 0.00 0.00 0.00 71 1015.3
20260502022004 59 116 0.0 0.0 0.00 0.00 0.00 70 1015.3
20260502021003 59 117 0.0 0.0 0.00 0.00 0.00 70 1015.3
20260502020004 59 117 0.0 1.0 0.00 0.00 0.00 69 1015.3
20260502015004 59 116 0.0 3.0 0.00 0.00 0.00 69 1015.3
20260502014003 59 117 1.0 3.0 0.00 0.00 0.00 69 1014.8
20260502013003 60 117 1.0 3.0 0.00 0.00 0.00 68 1014.8
20260502012003 60 117 2.0 3.0 0.00 0.00 0.00 68 1014.8
20260502011003 60 121 1.0 3.0 0.00 0.00 0.00 67 1014.8
20260502010004 61 49 0.0 5.0 0.00 0.00 0.00 66 1014.5
20260502004004 61 108 1.0 3.0 0.00 0.00 0.00 64 1014.2
20260502003003 61 103 3.0 6.0 0.00 0.00 0.00 64 1013.9
20260502001004 62 92 1.0 5.0 0.00 0.00 0.00 64 1013.8
20260502000003 62 112 1.0 6.0 0.00 0.00 0.00 64 1013.8
20260501235003 62 54 1.0 3.0 0.00 0.00 0.00 63 1013.9
20260501234003 62 49 1.0 3.0 0.00 0.00 0.00 62 1013.2
20260501232003 63 35 2.0 13.0 0.00 0.00 0.00 59 1013.2
20260501231003 63 55 6.0 12.0 0.00 0.00 0.00 57 1013.2
20260501225004 63 42 7.0 16.0 0.00 0.00 0.00 57 1013.2
20260501224004 63 26 9.0 13.0 0.00 0.00 0.00 58 1013.2
20260501223003 63 43 6.0 12.0 0.00 0.00 0.00 59 1013.2
20260501221003 63 42 5.0 10.0 0.00 0.00 0.00 58 1013.2
20260501220003 63 15 9.0 16.0 0.00 0.00 0.00 58 1013.2
20260501215003 63 45 7.0 13.0 0.00 0.00 0.00 57 1013.2
20260501214003 63 26 6.0 10.0 0.00 0.00 0.00 58 1013.2
20260501213003 63 35 6.0 10.0 0.00 0.00 0.00 58 1013.2
20260501212003 63 33 6.0 12.0 0.00 0.00 0.00 59 1013.2
20260501211003 63 34 6.0 12.0 0.00 0.00 0.00 57 1013.2
20260501210003 63 19 12.0 16.0 0.00 0.00 0.00 56 1013.3
20260501205003 63 45 7.0 13.0 0.00 0.00 0.00 57 1013.3
20260501204003 63 25 8.0 12.0 0.00 0.00 0.00 59 1013.8
20260501203004 64 32 11.0 15.0 0.00 0.00 0.00 57 1014.3
20260501202004 63 32 9.0 13.0 0.00 0.00 0.00 58 1014.3
20260501201003 62 26 3.0 8.0 0.00 0.00 0.00 57 1014.3
20260501200003 62 39 2.0 8.0 0.00 0.00 0.00 58 1014.5
20260501194003 62 56 4.0 12.0 0.00 0.00 0.00 56 1013.9
20260501192003 62 51 7.0 13.0 0.00 0.00 0.00 54 1013.9
20260501191003 62 80 3.0 9.0 0.00 0.00 0.00 54 1013.9
20260501185003 62 46 5.0 9.0 0.00 0.00 0.00 54 1013.9
20260501183003 62 59 5.0 14.0 0.00 0.00 0.00 53 1013.8
20260501182003 62 34 9.0 15.0 0.00 0.00 0.00 51 1013.8
20260501181003 63 39 6.0 13.0 0.00 0.00 0.00 53 1013.8
20260501180004 63 64 6.0 16.0 0.00 0.00 0.00 54 1014.0